WS Maaseik 1 Meer informatie WS Maaseik 1


WS Maaseik 2 Meer informatie WS Maaseik 2


Regen radar Meer informatie rain snow radar


Bezoek onze andere website:

Vorige versie
weerstation Maaseik


Bezoek ook eens deze sites:

Weerstation Geleen



We konden geen weer-waarchuwingen ophalen. Ga rechtstreeks naar de Meteoalarm site : www.meteoalarm.eu en controleer daar .

15 daagse weersverwachting Porsgrunn (NO)

  • Overzicht
  • Per uur
  • 15 dagen
  • Extra
  • Vergelijk
  • Kaarten
  • Dagkaart
  • Meer »
  • Info
  • Statistieken
  • Directe link
    Temp 6h Neerslag Wind  
 05:40     21:13    Daglengte: 15:33 Vandaag
20:00
20°
 
1
 05:43     21:10    Daglengte: 15:27 Morgen
02:00
15°
 
1
08:00
19°
 
1
14:00
26°
 
3
20:00
22°
4.2 mm
2
 05:45     21:07    Daglengte: 15:22 Dinsdag 16 Aug
02:00
20°
15.8 mm
2
08:00
20°
12.1 mm
2
warningclass
14:00
21°
6.0 mm
2
warningclass
20:00
19°
6.2 mm
2
 05:47     21:05    Daglengte: 15:18 Woensdag 17 Aug
02:00
18°
2.9 mm
1
08:00
18°
0.8 mm
2
Locatie info
Region: Telemark
Latitude: 59.1444°N
Longitude: 9.6589°E
9 masl
Postcode: 3915
Temp/Neerslag /Baro Onweer/Dauwpunt
    Temp Baro 1h Neerslag Dauwpunt Wind UV Bewolking  
 05:40     21:13    Daglengte: 15:33 Vandaag
15:00
23°
1015.4 hPa   11.5°
3
Windvlaag: 5.6 m/s
53%
16:00
23°
1015.0 hPa   13.6°
3
Windvlaag: 5.6 m/s
19%
17:00
22°
1014.6 hPa   13.8°
3
Windvlaag: 4.8 m/s
67%
18:00
21°
1014.0 hPa   13.4°
2
Windvlaag: 4.7 m/s
75%
19:00
21°
1013.8 hPa   12.6°
1
Windvlaag: 3.6 m/s
84%
20:00
20°
1013.3 hPa
18%
14.8°
1
Windvlaag: 1.2 m/s
70%
21:00
20°
1013.4 hPa   16.0°
1
Windvlaag: 0.1 m/s
62%
22:00
19°
1013.2 hPa   14.2°
1
Windvlaag: -0.2 m/s
86%
23:00
18°
1012.9 hPa   14.4°
1
Windvlaag: -0.2 m/s
25%
 05:43     21:10    Daglengte: 15:27 Morgen
00:00
17°
1012.6 hPa   14.5°
1
Windvlaag: -0.1 m/s
57%
01:00
16°
1012.3 hPa   14.3°
1
Windvlaag: -0 m/s
47%
02:00
15°
1012.0 hPa   13.7°
1
Windvlaag: -0.6 m/s
55%
03:00
15°
1011.8 hPa   13.3°
1
Windvlaag: 0.1 m/s
45%
04:00
15°
1011.5 hPa   13.4°
2
Windvlaag: -0.1 m/s
54%
05:00
16°
1011.1 hPa
15%
13.3°
2
Windvlaag: -0.6 m/s
55%
06:00
16°
1010.6 hPa   13.2°
2
Windvlaag: -0.8 m/s
59%
07:00
17°
1010.4 hPa   13.1°
2
Windvlaag: -0.6 m/s
17%
08:00
19°
1010.3 hPa   13.3°
1
Windvlaag: -1 m/s
15%
09:00
21°
1010.3 hPa   14.0°
2
Windvlaag: -1.9 m/s
10%
10:00
22°
1010.3 hPa   14.7°
3
Windvlaag: -1.7 m/s
9%
11:00
23°
1010.4 hPa   15.7°
3
Windvlaag: -0.1 m/s
14%
12:00
24°
1010.1 hPa   16.2°
3
Windvlaag: 0 m/s
13%
13:00
24°
1009.8 hPa   14.8°
3
Windvlaag: 1.1 m/s
12%
14:00
26°
1009.5 hPa   12.7°
3
Windvlaag: 2.5 m/s
12%
15:00
26°
1009.0 hPa   13.0°
3
Windvlaag: 3.3 m/s
12%
16:00
27°
1008.6 hPa   14.7°
3
Windvlaag: 6.1 m/s
37%
17:00
26°
1008.4 hPa   14.5°
3
Windvlaag: 6.6 m/s
20%
18:00
25°
1008.1 hPa
18%
14.2°
3
Windvlaag: 4.5 m/s
17%
19:00
24°
1008.1 hPa 1.6 mm
19%
14.0°
2
Windvlaag: 0.7 m/s
16%
20:00
22°
1008.3 hPa 2.7 mm
20%
14.5°
2
Windvlaag: -2.9 m/s
14%
21:00
21°
1008.6 hPa 2.7 mm
20%
16.2°
1
Windvlaag: -2.1 m/s
33%
22:00
20°
1008.7 hPa 2.5 mm
20%
17.7°
1
Windvlaag: -3.2 m/s
48%
23:00
20°
1008.7 hPa 2.0 mm
20%
18.8°
2
Windvlaag: -3.1 m/s
81% warningclass
 05:45     21:07    Daglengte: 15:22 Dinsdag 16 Aug
00:00
20°
1008.4 hPa 2.8 mm
20%
19.1°
2
Windvlaag: -2.7 m/s
82%
01:00
19°
1008.4 hPa 3.3 mm
20%
19.1°
2
Windvlaag: -2.3 m/s
82%
02:00
20°
1008.0 hPa 2.4 mm
37%
19.0°
2
Windvlaag: -2.3 m/s
86%
03:00
20°
1007.7 hPa 3.4 mm
80%
19.0°
2
Windvlaag: -2.4 m/s
86% warningclass
04:00
20°
1007.4 hPa 1.8 mm
82%
19.1°
2
Windvlaag: -2.3 m/s
84% warningclass
05:00
19°
1007.1 hPa 2.4 mm
82%
18.9°
2
Windvlaag: -2.6 m/s
86% warningclass
06:00
19°
1007.0 hPa 1.7 mm
82%
18.9°
2
Windvlaag: -2.4 m/s
86% warningclass
07:00
19°
1007.0 hPa 1.6 mm
82%
18.7°
2
Windvlaag: -2.7 m/s
86% warningclass
08:00
20°
1006.8 hPa 1.2 mm
82%
18.7°
2
Windvlaag: -2.8 m/s
82% warningclass
09:00
20°
1006.8 hPa 0.9 mm
82%
18.9°
3
Windvlaag: -2.7 m/s
69%
10:00
21°
1006.8 hPa 0.5 mm
82%
19.0°
2
Windvlaag: -2 m/s
66%
11:00
21°
1007.1 hPa 0.7 mm
100%
15.5°
2
Windvlaag: 1.3 m/s
100%
12:00
20°
1007.1 hPa 1.7 mm
100%
15.8°
3
Windvlaag: 6 m/s
100% warningclass
13:00
20°
1006.8 hPa 1.4 mm
100%
15.8°
2
Windvlaag: 5.9 m/s
99% warningclass
14:00
21°
1006.5 hPa 0.9 mm
100%
15.5°
2
Windvlaag: 4.5 m/s
88% warningclass
15:00
21°
1006.2 hPa 1.3 mm
100%
15.1°
3
Windvlaag: 3.3 m/s
88% warningclass
16:00
21°
1005.8 hPa 1.1 mm
100%
15.3°
2
Windvlaag: 3.3 m/s
94% warningclass
17:00
20°
1005.6 hPa 1.0 mm
100%
14.7°
2
Windvlaag: 4.6 m/s
84% warningclass
18:00
20°
1005.4 hPa 1.1 mm
100%
14.6°
2
Windvlaag: 5.3 m/s
87% warningclass
19:00
20°
1005.1 hPa 0.9 mm
100%
15.3°
2
Windvlaag: 5.2 m/s
96%
20:00
19°
1005.3 hPa 0.8 mm
100%
16.2°
2
Windvlaag: 3.4 m/s
97%
21:00
19°
1005.5 hPa 0.8 mm
100%
17.0°
1
Windvlaag: 1.4 m/s
98%
22:00
19°
1005.5 hPa 0.5 mm
93%
18.1°
1
Windvlaag: 2.7 m/s
93%
23:00
18°
1005.5 hPa 0.7 mm
77%
18.1°
1
Windvlaag: 3.5 m/s
96%
 05:47     21:05    Daglengte: 15:18 Woensdag 17 Aug
00:00
18°
1005.7 hPa 0.8 mm
36%
17.9°
2
Windvlaag: 3.4 m/s
98%
01:00
18°
1005.8 hPa
81%
17.9°
1
Windvlaag: 2.9 m/s
97%
02:00
18°
1005.7 hPa
32%
17.8°
1
Windvlaag: 2.1 m/s
97%
03:00
18°
1005.7 hPa
95%
17.6°
2
Windvlaag: 3.4 m/s
89%
04:00
17°
1005.8 hPa 0.8 mm
100%
17.1°
2
Windvlaag: 4 m/s
99%
05:00
18°
1005.7 hPa
87%
16.8°
2
Windvlaag: 4.4 m/s
95%
06:00
17°
1005.7 hPa
36%
15.4°
2
Windvlaag: 1.8 m/s
70%
07:00
18°
1005.8 hPa
37%
14.3°
2
Windvlaag: 2.9 m/s
74%
08:00
18°
1006.1 hPa
84%
14.8°
2
Windvlaag: 2.4 m/s
25%
09:00
19°
1006.5 hPa 1.0 mm
95%
14.5°
2
Windvlaag: 0.9 m/s
93%
10:00
19°
1006.8 hPa 1.0 mm
100%
14.3°
3
Windvlaag: 2.3 m/s
69% warningclass
11:00
20°
1007.0 hPa 0.9 mm
99%
13.9°
3
Windvlaag: 2 m/s
71% warningclass
12:00
20°
1007.1 hPa 0.9 mm
100%
13.2°
3
Windvlaag: 2.4 m/s
82% warningclass
13:00
20°
1007.1 hPa 0.8 mm
100%
14.5°
4
Windvlaag: 3.3 m/s
27% warningclass
14:00
20°
1007.3 hPa 0.9 mm
98%
15.1°
4
Windvlaag: 3.6 m/s
73% warningclass
Temp/Neerslag /Baro Onweer/Dauwpunt
    Temp Baro Neerslag Dauwpunt Wind Bewolking  
 05:40     21:13    Daglengte: 15:33 Vandaag
17:00
22°
1014.6 hPa   13.8°
3
67%
20:00
20°
1013.3 hPa   14.8°
1
70%
23:00
18°
1012.9 hPa   14.4°
1
25%
 05:43     21:10    Daglengte: 15:27 Morgen
02:00
15°
1012.0 hPa   13.7°
1
55%
05:00
16°
1011.1 hPa   13.3°
2
55%
08:00
19°
1010.3 hPa   13.3°
1
15%
11:00
23°
1010.4 hPa   15.7°
3
14%
14:00
26°
1009.5 hPa   12.7°
3
12%
17:00
26°
1008.4 hPa   14.5°
3
20%
20:00
22°
1008.3 hPa 4.2 mm 14.5°
2
14%
23:00
20°
1008.7 hPa 7.2 mm 18.8°
2
81% warningclass
 05:45     21:07    Daglengte: 15:22 Dinsdag 16 Aug
02:00
20°
1008.0 hPa 8.6 mm 19.0°
2
86%
05:00
19°
1007.1 hPa 7.6 mm 18.9°
2
86% warningclass
08:00
20°
1006.8 hPa 4.4 mm 18.7°
2
82% warningclass
11:00
21°
1007.1 hPa 2.1 mm 15.5°
2
100%
14:00
21°
1006.5 hPa 4.0 mm 15.5°
2
88% warningclass
17:00
20°
1005.6 hPa 3.4 mm 14.7°
2
84% warningclass
20:00
19°
1005.3 hPa 2.8 mm 16.2°
2
97%
23:00
18°
1005.5 hPa 2.1 mm 18.1°
1
96%
 05:47     21:05    Daglengte: 15:18 Woensdag 17 Aug
02:00
18°
1005.7 hPa 0.8 mm 17.8°
1
97%
05:00
18°
1005.7 hPa 0.8 mm 16.8°
2
95%
08:00
18°
1006.1 hPa   14.8°
2
25%
11:00
20°
1007.0 hPa 2.9 mm 13.9°
3
71% warningclass
14:00
20°
1007.3 hPa 2.5 mm 15.1°
4
73% warningclass
17:00
22°
1009.8 hPa 6.8 mm 13.6°
5
0%
20:00
18°
1010.0 hPa 6.8 mm 15.0°
3
0%
23:00
16°
1010.9 hPa 6.8 mm 15.3°
1
1%
 05:49     21:02    Daglengte: 15:13 Donderdag 18 Aug
02:00
14°
1011.6 hPa 6.8 mm 14.0°
1
1%
05:00
13°
1012.3 hPa 6.8 mm 12.9°
2
0%
08:00
16°
1013.3 hPa 6.8 mm 14.0°
3
0%
11:00
21°
1013.0 hPa 6.8 mm 11.6°
3
0%
14:00
24°
1012.5 hPa 6.9 mm 10.9°
3
1%
17:00
23°
1011.9 hPa 7.0 mm 11.5°
1
1%
20:00
20°
1011.4 hPa 7.0 mm 13.8°
1
1%
23:00
18°
1011.2 hPa 7.1 mm 13.7°
2
1%
 05:52     20:59    Daglengte: 15:07 Vrijdag 19 Aug
02:00
16°
1010.8 hPa 7.1 mm 13.4°
2
1%
05:00
15°
1010.5 hPa 7.1 mm 13.5°
2
0%
08:00
18°
1010.4 hPa 7.2 mm 15.0°
1
0%
11:00
21°
1010.2 hPa 7.3 mm 16.0°
0
1%
14:00
21°
1009.9 hPa 8.1 mm 18.3°
2
1%
17:00
19°
1009.2 hPa 10.1 mm 18.3°
1
1%
20:00
18°
1008.2 hPa 10.9 mm 17.5°
2
1%
23:00
16°
1007.6 hPa 10.9 mm 15.9°
1
1%
 05:54     20:56    Daglengte: 15:02 Zaterdag 20 Aug
02:00
15°
1007.4 hPa 10.9 mm 14.1°
0
1%
05:00
14°
1007.2 hPa 10.9 mm 12.8°
1
0%
08:00
16°
1007.1 hPa 10.9 mm 13.7°
1
0%
11:00
21°
1007.0 hPa 10.9 mm 13.0°
0
1%
14:00
23°
1006.5 hPa 10.9 mm 8.9°
2
1%
20:00
19°
1005.3 hPa 10.9 mm 12.8°
1
1%
23:00
15°
1005.3 hPa 10.9 mm 11.1°
1
1%
 05:56     20:54    Daglengte: 14:58 Zondag 21 Aug
02:00
14°
1004.9 hPa 10.9 mm 9.4°
2
1%
05:00
13°
1004.4 hPa 10.9 mm 8.1°
2
1%
08:00
15°
1003.9 hPa 10.9 mm 7.6°
2
1%
11:00
19°
1003.4 hPa 10.9 mm 8.3°
3
1%
14:00
20°
1003.2 hPa 10.9 mm 10.8°
2
1%
17:00
20°
1003.1 hPa   11.4°
1
1%
20:00
18°
1002.8 hPa 21.9 mm 11.5°
1
1%
 05:59     20:51    Daglengte: 14:52 Maandag 22 Aug
02:00
13°
1003.9 hPa 21.9 mm 6.4°
3
1%
08:00
13°
1005.0 hPa 21.9 mm 5.1°
2
1%
14:00
17°
1006.2 hPa 22.1 mm 11.0°
3
1%
20:00
16°
1006.2 hPa 22.2 mm 11.3°
2
1%
 06:01     20:48    Daglengte: 14:47 Dinsdag 23 Aug
02:00
15°
1004.7 hPa 26.2 mm 15.3°
1
1%
08:00
15°
1006.2 hPa 28.3 mm 13.4°
1
1%
14:00
22°
1007.0 hPa 28.3 mm 9.9°
3
1%
20:00
20°
1008.1 hPa 28.3 mm 8.1°
4
0%
 06:03     20:45    Daglengte: 14:42 Woensdag 24 Aug
02:00
12°
1010.7 hPa 28.3 mm 7.8°
2
0%
08:00
13°
1013.9 hPa 28.3 mm 6.1°
3
0%
14:00
20°
1015.7 hPa 0.2 mm 11.7°
2
59%
20:00
18°
1015.4 hPa 0.2 mm 12.1°
2
52%
 06:05     20:42    Daglengte: 14:37 Donderdag 25 Aug
02:00
15°
1016.5 hPa 0.1 mm 11.5°
1
48%
08:00
15°
1016.9 hPa 0.1 mm 11.4°
1
52%
14:00
21°
1017.3 hPa 0.2 mm 11.1°
1
47%
20:00
18°
1017.1 hPa 0.2 mm 11.8°
1
44%
 06:08     20:40    Daglengte: 14:32 Vrijdag 26 Aug
02:00
14°
1018.4 hPa 0.6 mm 10.9°
1
49%
08:00
15°
1018.8 hPa 0.3 mm 10.9°
1
49%
14:00
20°
1018.6 hPa 0.1 mm 11.2°
1
50%
20:00
18°
1017.8 hPa 0.2 mm 11.9°
1
54%
 06:10     20:37    Daglengte: 14:27 Zaterdag 27 Aug
02:00
14°
1018.7 hPa 0.2 mm 11.3°
1
53%
08:00
15°
1018.7 hPa 0.2 mm 11.3°
1
55%
14:00
20°
1018.0 hPa 0.2 mm 11.3°
1
49%
20:00
17°
1016.9 hPa 0.4 mm 12.2°
1
48%
 06:12     20:34    Daglengte: 14:22 Zondag 28 Aug
02:00
14°
1017.7 hPa 0.4 mm 11.3°
2
48%
08:00
15°
1017.6 hPa 0.2 mm 11.0°
2
52%
14:00
21°
1017.3 hPa 0.2 mm 11.3°
1
51%
20:00
18°
1016.6 hPa 0.1 mm 11.9°
1
51%
 06:14     20:31    Daglengte: 14:17 Maandag 29 Aug
02:00
14°
1017.7 hPa 0.2 mm 11.0°
1
42%
08:00
15°
1018.2 hPa 0.1 mm 10.3°
2
52%
14:00
21°
1018.1 hPa 0.2 mm 9.8°
1
44%
  CAPE Lifted Index Hail Supercell Tornado SRH 3km CL BTM PRES CL TOP PRES Swiss DWD icon SMHI TS
 05:40     21:13    Daglengte: 15:33 Vandaag
15:00 0 J/kg 2.6 K 0 % 0 % 0 % 0 m²/s² 0 0 5.36 3
16:00 0 J/kg 2.8 K 0 % 0 % 0 % 0 m²/s² 0 0 5.26 2
17:00 0 J/kg 3.1 K 0 % 0 % 0 % 0 m²/s² 0 0 5.08 3
18:00 0 J/kg 3.6 K 0 % 0 % 0 % 0 m²/s² 0 0 4.71 3
19:00 0 J/kg 3.6 K 0 % 0 % 0 % 0 m²/s² 0 0 3.69 3
20:00 0 J/kg 3.5 K 0 % 0 % 0 % 0 m²/s² 0 0 3.53 61
21:00 0 J/kg 3.6 K 0 % 0 % 0 % 0 m²/s² 0 0 3.6 2
22:00 0 J/kg 2.9 K 0 % 0 % 0 % 0 m²/s² 0 0 2.99 3
23:00 0 J/kg 3.4 K 0 % 0 % 0 % 0 m²/s² 0 0 3.76 2
 05:43     21:10    Daglengte: 15:27 Morgen
00:00 0 J/kg 3.4 K 0 % 0 % 0 % 0 m²/s² 0 0 4.24 3
01:00 0 J/kg 2.3 K 0 % 0 % 0 % 0 m²/s² 0 0 3.29 3
02:00 0 J/kg 1.8 K 0 % 0 % 0 % 0 m²/s² 0 0 2.91 45
03:00 0 J/kg 1.8 K 0 % 0 % 0 % 0 m²/s² 0 0 3.27 45
04:00 0 J/kg 1.5 K 0 % 0 % 0 % 0 m²/s² 0 0 2.97 3
05:00 0 J/kg 1.2 K 0 % 0 % 0 % 0 m²/s² 0 0 2.97 3
06:00 0 J/kg 0.8 K 0 % 0 % 0 % 0 m²/s² 0 0 2.51 3
07:00 0 J/kg 0.5 K 0 % 0 % 0 % 0 m²/s² 0 0 2.39 2
08:00 0 J/kg 0.8 K 0 % 0 % 0 % 0 m²/s² 0 0 3.41 1
09:00 0 J/kg 1.0 K 0 % 0 % 0 % 0 m²/s² 0 0 4 2
10:00 0 J/kg 1.4 K 0 % 0 % 0 % 0 m²/s² 0 0 4.94 1
11:00 0 J/kg 0.4 K 0 % 0 % 0 % 0 m²/s² 0 0 4.33 2
12:00 0 J/kg 1.3 K 0 % 0 % 0 % 0 m²/s² 0 0 5.53 2
13:00 0 J/kg 1.7 K 0 % 0 % 0 % 0 m²/s² 0 0 6.05 2
14:00 0 J/kg 2.9 K 0 % 0 % 0 % 0 m²/s² 0 0 7.37 1
15:00 5 J/kg 0.5 K 0 % 0 % 0 % 0 m²/s² 0 0 4.73 1
16:00 209 J/kg -1.4 K 0 % 0 % 0 % 0 m²/s² 0 0 2.86 3
17:00 442 J/kg -2.3 K 0 % 0 % 0 % 0 m²/s² 0 0 1.84 1
18:00 505 J/kg -2.3 K 0 % 0 % 0 % 0 m²/s² 0 0 1.84 3
19:00 582 J/kg -2.5 K 0 % 0 % 0 % 0 m²/s² 0 0 1.34 2
20:00 531 J/kg -2.4 K 0 % 0 % 0 % 0 m²/s² 0 0 1.35 80
21:00 516 J/kg -3.2 K 0 % 0 % 0 % 0 m²/s² 0 0 -0.08 80
22:00 447 J/kg -3.6 K 0 % 0 % 0 % 0 m²/s² 0 0 -1.74 95
23:00 515 J/kg -3.6 K 0 % 0 % 0 % 0 m²/s² 0 0 -2.28 95
 05:45     21:07    Daglengte: 15:22 Dinsdag 16 Aug
00:00 47 J/kg -3.7 K 0 % 0 % 0 % 0 m²/s² 0 0 -2.68 95
01:00 310 J/kg -3.5 K 0 % 0 % 0 % 0 m²/s² 0 0 -2.18 95
02:00 376 J/kg -3.9 K 0 % 0 % 0 % 0 m²/s² 0 0 -2.28 95
03:00 386 J/kg -4.0 K 0 % 0 % 0 % 0 m²/s² 0 0 -2.74 95
04:00 294 J/kg -3.6 K 0 % 0 % 0 % 0 m²/s² 0 0 -2.04 95
05:00 135 J/kg -2.3 K 0 % 0 % 0 % 0 m²/s² 0 0 -0.68 95
06:00 77 J/kg -2.1 K 0 % 0 % 0 % 0 m²/s² 0 0 -0.87 95
07:00 0 J/kg -1.7 K 0 % 0 % 0 % 0 m²/s² 0 0 -0.59 95
08:00 32 J/kg -1.9 K 0 % 0 % 0 % 0 m²/s² 0 0 -1 95
09:00 245 J/kg -2.5 K 0 % 0 % 0 % 0 m²/s² 0 0 -1.63 80
10:00 399 J/kg -2.7 K 0 % 0 % 0 % 0 m²/s² 0 0 -1.92 80
11:00 548 J/kg -2.3 K 0 % 0 % 0 % 0 m²/s² 0 0 -1.94 80
12:00 266 J/kg -2.3 K 0 % 0 % 0 % 0 m²/s² 0 0 -2.09 95
13:00 418 J/kg -2.8 K 0 % 0 % 0 % 0 m²/s² 0 0 -2.41 95
14:00 995 J/kg -3.7 K 0 % 0 % 0 % 0 m²/s² 0 0 -2.59 95
15:00 1040 J/kg -3.7 K 0 % 0 % 0 % 0 m²/s² 0 0 -2.2 95
16:00 990 J/kg -3.4 K 0 % 0 % 0 % 0 m²/s² 0 0 -2.35 80
17:00 1024 J/kg -3.3 K 0 % 0 % 0 % 0 m²/s² 0 0 -2.28 80
18:00 1057 J/kg -3.8 K 0 % 0 % 0 % 0 m²/s² 0 0 -3.02 3
19:00 704 J/kg -2.9 K 0 % 0 % 0 % 0 m²/s² 0 0 -1.04 80
20:00 682 J/kg -3.1 K 0 % 0 % 0 % 0 m²/s² 0 0 -1.36 3
21:00 486 J/kg -2.4 K 0 % 0 % 0 % 0 m²/s² 0 0 -1.23 80
22:00 389 J/kg -3.2 K 0 % 0 % 0 % 0 m²/s² 0 0 -1.76 3
23:00 245 J/kg -3.4 K 0 % 0 % 0 % 0 m²/s² 0 0 -2.11 45
 05:47     21:05    Daglengte: 15:18 Woensdag 17 Aug
00:00 302 J/kg -3.5 K 0 % 0 % 0 % 0 m²/s² 0 0 -2.12 3
01:00 141 J/kg -2.7 K 0 % 0 % 0 % 0 m²/s² 0 0 -1.32 3
02:00 48 J/kg -2.1 K 0 % 0 % 0 % 0 m²/s² 0 0 -0.93 3
03:00 0 J/kg -2.0 K 0 % 0 % 0 % 0 m²/s² 0 0 -0.68 3
04:00 0 J/kg -2.2 K 0 % 0 % 0 % 0 m²/s² 0 0 -0.88 3
05:00 0 J/kg -2.6 K 0 % 0 % 0 % 0 m²/s² 0 0 -1.49 3
06:00 0 J/kg -2.9 K 0 % 0 % 0 % 0 m²/s² 0 0 -2.15 3
07:00 0 J/kg -2.9 K 0 % 0 % 0 % 0 m²/s² 0 0 -2.54 3
08:00 0 J/kg -1.8 K 0 % 0 % 0 % 0 m²/s² 0 0 -1.5 3
09:00 347 J/kg -1.8 K 0 % 0 % 0 % 0 m²/s² 0 0 -1.53 80
10:00 583 J/kg -2.6 K 0 % 0 % 0 % 0 m²/s² 0 0 -2.57 80
11:00 655 J/kg -2.7 K 0 % 0 % 0 % 0 m²/s² 0 0 -2.28 80
12:00 804 J/kg -2.9 K 0 % 0 % 0 % 0 m²/s² 0 0 -2.42 80
13:00 954 J/kg -3.0 K 0 % 0 % 0 % 0 m²/s² 0 0 -2.04 3
14:00 1046 J/kg -3.3 K 0 % 0 % 0 % 0 m²/s² 0 0 -2.25 80
Temp Baro Wind Neerslag
  EWN Forecast EWN WRFDA DWD ICON FMI HIRLAM MET Norway GFS
 05:40     21:13    Daglengte: 15:33 Vandaag
17:00 22.0° 1014.6 hPa 2.6 m/s 0.0 mm 23.9° 1013.6 hPa 3.5 m/s 0.0 mm 22.7° 1014.7 hPa 2.7 m/s -2.0 mm 21.8° 1014.4 hPa 1.5 m/s 0.0 mm 24.5° 1014.0 hPa 3.0 m/s
20:00 20.4° 1013.3 hPa 1.0 m/s 0.0 mm 21.4° 1012.9 hPa 1.8 m/s 0.0 mm 19.3° 1013.4 hPa 1.5 m/s 0.1 mm 20.8° 1013.2 hPa 0.1 m/s 0.0 mm 20.6° 1013.1 hPa 1.1 m/s
23:00 18.2° 1012.9 hPa 1.3 m/s 0.0 mm 19.8° 1011.9 hPa 2.4 m/s 0.0 mm 16.9° 1013.0 hPa 1.2 m/s 0.0 mm 18.1° 1013.0 hPa 1.2 m/s 0.0 mm 18.6° 1012.3 hPa 2.0 m/s
 05:43     21:10    Daglengte: 15:27 Morgen
02:00 15.4° 1012.0 hPa 1.3 m/s 0.0 mm 19.1° 1011.1 hPa 2.6 m/s 0.0 mm 13.5° 1012.0 hPa 1.1 m/s 0.0 mm 14.7° 1012.2 hPa 1.0 m/s 0.0 mm 16.8° 1011.9 hPa 1.4 m/s
05:00 15.6° 1011.1 hPa 1.7 m/s 0.0 mm 16.4° 1009.8 hPa 2.9 m/s 0.0 mm 13.8° 1011.3 hPa 1.3 m/s 0.0 mm 15.4° 1011.2 hPa 1.6 m/s 0.0 mm 17.2° 1010.8 hPa 1.8 m/s
08:00 18.7° 1010.3 hPa 1.5 m/s 0.0 mm 21.1° 1009.1 hPa 3.3 m/s 0.0 mm 17.6° 1010.6 hPa 0.6 m/s 0.0 mm 18.4° 1010.2 hPa 1.4 m/s 0.0 mm 19.5° 1010.5 hPa 1.9 m/s
11:00 22.9° 1010.4 hPa 3.5 m/s 0.0 mm 23.2° 1009.0 hPa 3.8 m/s 0.0 mm 22.5° 1010.6 hPa 4.0 m/s 0.0 mm 23.6° 1010.1 hPa 3.4 m/s 0.0 mm 23.8° 1010.0 hPa 2.9 m/s
14:00 25.5° 1009.5 hPa 2.6 m/s 0.0 mm 25.9° 1008.3 hPa 4.0 m/s 0.0 mm 25.0° 1009.7 hPa 3.1 m/s 0.0 mm 26.0° 1009.4 hPa 2.5 m/s 0.0 mm 24.7° 1009.5 hPa 2.9 m/s
17:00 25.8° 1008.4 hPa 3.2 m/s 0.0 mm 26.6° 1007.2 hPa 3.5 m/s 0.0 mm 25.9° 1008.5 hPa 3.3 m/s 0.0 mm 27.2° 1007.9 hPa 2.4 m/s 0.0 mm 26.2° 1007.9 hPa 1.5 m/s
20:00 22.1° 1008.3 hPa 2.2 m/s 4.2 mm 24.7° 1006.2 hPa 1.0 m/s 0.0 mm 21.6° 1008.7 hPa 2.5 m/s 1.0 mm 24.9° 1007.0 hPa 2.3 m/s 0.0 mm 23.3° 1007.2 hPa 0.5 m/s
23:00 19.6° 1008.7 hPa 1.7 m/s 7.2 mm 19.4° 1006.7 hPa 2.7 m/s 0.0 mm 19.3° 1009.2 hPa 1.2 m/s 4.6 mm 19.6° 1007.8 hPa 1.5 m/s 0.0 mm 19.5° 1007.6 hPa 1.9 m/s
 05:45     21:07    Daglengte: 15:22 Dinsdag 16 Aug
02:00 19.5° 1008.0 hPa 1.6 m/s 8.6 mm 18.9° 1006.6 hPa 3.0 m/s 0.0 mm 19.2° 1008.4 hPa 1.1 m/s 9.1 mm 20.3° 1006.9 hPa 2.1 m/s 0.0 mm 17.0° 1008.2 hPa 2.0 m/s
05:00 19.4° 1007.1 hPa 2.2 m/s 7.6 mm 19.1° 1005.1 hPa 3.7 m/s 0.6 mm 19.2° 1007.5 hPa 1.2 m/s 8.0 mm 19.8° 1006.0 hPa 2.2 m/s 0.0 mm 17.0° 1007.1 hPa 2.5 m/s
08:00 19.5° 1006.8 hPa 2.1 m/s 4.4 mm 20.1° 1004.7 hPa 3.7 m/s 1.9 mm 19.3° 1007.4 hPa 1.9 m/s 3.7 mm 20.1° 1005.9 hPa 2.5 m/s 0.0 mm 18.8° 1006.8 hPa 2.9 m/s
11:00 20.8° 1007.1 hPa 2.4 m/s 2.1 mm 23.4° 1004.4 hPa 4.1 m/s 2.4 mm 20.2° 1007.8 hPa 2.2 m/s 1.7 mm 19.8° 1007.0 hPa 3.0 m/s
14:00 20.6° 1006.5 hPa 2.1 m/s 4.0 mm 24.2° 1004.4 hPa 4.1 m/s 4.9 mm 20.3° 1006.7 hPa 1.9 m/s 4.0 mm 21.2° 1006.4 hPa 2.0 m/s
17:00 20.5° 1005.6 hPa 2.3 m/s 3.4 mm 24.6° 1002.7 hPa 3.1 m/s 5.6 mm 19.7° 1006.0 hPa 1.8 m/s 2.0 mm 22.8° 1005.2 hPa 1.8 m/s
20:00 19.1° 1005.3 hPa 1.6 m/s 2.8 mm 21.8° 1002.9 hPa 2.4 m/s 5.6 mm 18.8° 1005.5 hPa 1.7 m/s 0.7 mm 19.8° 1006.0 hPa 3.5 m/s
23:00 18.1° 1005.5 hPa 1.2 m/s 2.1 mm 17.7° 1003.6 hPa 1.8 m/s 6.0 mm 18.0° 1005.7 hPa 1.1 m/s 0.4 mm 17.9° 1007.0 hPa 2.9 m/s
 05:47     21:05    Daglengte: 15:18 Woensdag 17 Aug
02:00 17.8° 1005.7 hPa 1.5 m/s 0.8 mm 16.3° 1003.9 hPa 1.2 m/s 6.1 mm 17.9° 1005.9 hPa 1.5 m/s 0.0 mm 16.7° 1008.0 hPa 2.4 m/s
05:00 17.5° 1005.7 hPa 2.4 m/s 0.8 mm 15.8° 1004.6 hPa 1.6 m/s 6.1 mm 17.7° 1005.9 hPa 2.5 m/s 0.2 mm 15.9° 1008.4 hPa 2.0 m/s
08:00 18.2° 1006.1 hPa 1.9 m/s 0.0 mm 19.2° 1006.0 hPa 0.4 m/s 6.1 mm 18.0° 1006.1 hPa 2.3 m/s 0.0 mm 18.6° 1009.1 hPa 3.2 m/s
11:00 19.9° 1007.0 hPa 3.4 m/s 2.9 mm 22.8° 1007.8 hPa 1.9 m/s 6.1 mm 19.1° 1006.8 hPa 3.7 m/s 1.2 mm 22.4° 1009.3 hPa 4.0 m/s
14:00 20.4° 1007.3 hPa 3.8 m/s 2.5 mm 23.5° 1008.4 hPa 3.4 m/s 6.2 mm 19.6° 1007.1 hPa 3.9 m/s 0.6 mm 24.0° 1009.6 hPa 5.4 m/s
17:00 21.9° 1009.8 hPa 5.4 m/s 6.8 mm 21.9° 1009.8 hPa 5.4 m/s 6.8 mm
20:00 18.5° 1010.0 hPa 3.2 m/s 6.8 mm 18.5° 1010.0 hPa 3.2 m/s 6.8 mm
23:00 15.5° 1010.9 hPa 1.2 m/s 6.8 mm 15.5° 1010.9 hPa 1.2 m/s 6.8 mm
 05:49     21:02    Daglengte: 15:13 Donderdag 18 Aug
02:00 14.5° 1011.6 hPa 1.4 m/s 6.8 mm 14.5° 1011.6 hPa 1.4 m/s 6.8 mm
05:00 13.4° 1012.3 hPa 2.2 m/s 6.8 mm 13.4° 1012.3 hPa 2.2 m/s 6.8 mm
08:00 16.1° 1013.3 hPa 3.0 m/s 6.8 mm 16.1° 1013.3 hPa 3.0 m/s 6.8 mm
11:00 21.2° 1013.0 hPa 3.0 m/s 6.8 mm 21.2° 1013.0 hPa 3.0 m/s 6.8 mm
14:00 23.5° 1012.5 hPa 3.1 m/s 6.9 mm 23.5° 1012.5 hPa 3.1 m/s 6.9 mm
17:00 22.7° 1011.9 hPa 1.1 m/s 7.0 mm 22.7° 1011.9 hPa 1.1 m/s 7.0 mm
20:00 20.2° 1011.4 hPa 1.1 m/s 7.0 mm 20.2° 1011.4 hPa 1.1 m/s 7.0 mm
23:00 17.7° 1011.2 hPa 1.6 m/s 7.1 mm 17.7° 1011.2 hPa 1.6 m/s 7.1 mm
 05:52     20:59    Daglengte: 15:07 Vrijdag 19 Aug
02:00 16.0° 1010.8 hPa 1.5 m/s 7.1 mm 16.0° 1010.8 hPa 1.5 m/s 7.1 mm
05:00 15.3° 1010.5 hPa 1.5 m/s 7.1 mm 15.3° 1010.5 hPa 1.5 m/s 7.1 mm
08:00 18.3° 1010.4 hPa 0.9 m/s 7.2 mm 18.3° 1010.4 hPa 0.9 m/s 7.2 mm
11:00 20.7° 1010.2 hPa 0.5 m/s 7.3 mm 20.7° 1010.2 hPa 0.5 m/s 7.3 mm
14:00 20.9° 1009.9 hPa 2.0 m/s 8.1 mm 20.9° 1009.9 hPa 2.0 m/s 8.1 mm
17:00 19.1° 1009.2 hPa 1.4 m/s 10.1 mm 19.1° 1009.2 hPa 1.4 m/s 10.1 mm
20:00 17.9° 1008.2 hPa 2.0 m/s 10.9 mm 17.9° 1008.2 hPa 2.0 m/s 10.9 mm
23:00 16.4° 1007.6 hPa 0.6 m/s 10.9 mm 16.4° 1007.6 hPa 0.6 m/s 10.9 mm
 05:54     20:56    Daglengte: 15:02 Zaterdag 20 Aug
02:00 14.7° 1007.4 hPa 0.4 m/s 10.9 mm 14.7° 1007.4 hPa 0.4 m/s 10.9 mm
05:00 13.6° 1007.2 hPa 1.1 m/s 10.9 mm 13.6° 1007.2 hPa 1.1 m/s 10.9 mm
08:00 15.7° 1007.1 hPa 1.0 m/s 10.9 mm 15.7° 1007.1 hPa 1.0 m/s 10.9 mm
11:00 21.0° 1007.0 hPa 0.2 m/s 10.9 mm 21.0° 1007.0 hPa 0.2 m/s 10.9 mm
14:00 22.9° 1006.5 hPa 1.8 m/s 10.9 mm 22.9° 1006.5 hPa 1.8 m/s 10.9 mm
20:00 18.8° 1005.3 hPa 0.7 m/s 10.9 mm 18.8° 1005.3 hPa 0.7 m/s 10.9 mm
23:00 15.1° 1005.3 hPa 1.3 m/s 10.9 mm 15.1° 1005.3 hPa 1.3 m/s 10.9 mm
 05:56     20:54    Daglengte: 14:58 Zondag 21 Aug
02:00 13.9° 1004.9 hPa 2.1 m/s 10.9 mm 13.9° 1004.9 hPa 2.1 m/s 10.9 mm
05:00 13.2° 1004.4 hPa 2.5 m/s 10.9 mm 13.2° 1004.4 hPa 2.5 m/s 10.9 mm
08:00 15.5° 1003.9 hPa 2.2 m/s 10.9 mm 15.5° 1003.9 hPa 2.2 m/s 10.9 mm
11:00 19.0° 1003.4 hPa 3.2 m/s 10.9 mm 19.0° 1003.4 hPa 3.2 m/s 10.9 mm
14:00 20.1° 1003.2 hPa 2.2 m/s 10.9 mm 20.1° 1003.2 hPa 2.2 m/s 10.9 mm
17:00 20.1° 1003.1 hPa 1.2 m/s 11.0 mm 20.1° 1003.1 hPa 1.2 m/s 11.0 mm
20:00 18.1° 1002.8 hPa 1.4 m/s 11.0 mm 18.1° 1002.8 hPa 1.4 m/s 11.0 mm
 05:59     20:51    Daglengte: 14:52 Maandag 22 Aug
02:00 12.7° 1003.9 hPa 2.6 m/s 11.0 mm 12.7° 1003.9 hPa 2.6 m/s 11.0 mm
08:00 12.9° 1005.0 hPa 2.4 m/s 11.0 mm 12.9° 1005.0 hPa 2.4 m/s 11.0 mm
14:00 17.1° 1006.2 hPa 2.6 m/s 11.1 mm 17.1° 1006.2 hPa 2.6 m/s 11.1 mm
20:00 15.6° 1006.2 hPa 2.5 m/s 11.1 mm 15.6° 1006.2 hPa 2.5 m/s 11.1 mm
 06:01     20:48    Daglengte: 14:47 Dinsdag 23 Aug
02:00 15.5° 1004.7 hPa 0.5 m/s 13.9 mm 15.5° 1004.7 hPa 0.5 m/s 13.9 mm
08:00 14.6° 1006.2 hPa 1.2 m/s 14.1 mm 14.6° 1006.2 hPa 1.2 m/s 14.1 mm
14:00 21.7° 1007.0 hPa 3.4 m/s 14.2 mm 21.7° 1007.0 hPa 3.4 m/s 14.2 mm
20:00 19.7° 1008.1 hPa 3.9 m/s 14.2 mm 19.7° 1008.1 hPa 3.9 m/s 14.2 mm
 06:03     20:45    Daglengte: 14:42 Woensdag 24 Aug
02:00 11.7° 1010.7 hPa 2.1 m/s 14.2 mm 11.7° 1010.7 hPa 2.2 m/s 14.2 mm
08:00 12.9° 1013.9 hPa 2.6 m/s 14.2 mm 12.9° 1013.9 hPa 2.6 m/s 14.2 mm
14:00 20.5° 1015.7 hPa 1.9 m/s 0.2 mm
20:00 18.5° 1015.4 hPa 1.6 m/s 0.2 mm
 06:05     20:42    Daglengte: 14:37 Donderdag 25 Aug
02:00 14.9° 1016.5 hPa 1.4 m/s 0.1 mm
08:00 15.1° 1016.9 hPa 0.9 m/s 0.1 mm
14:00 21.0° 1017.3 hPa 1.0 m/s 0.2 mm
20:00 17.9° 1017.1 hPa 1.1 m/s 0.2 mm
 06:08     20:40    Daglengte: 14:32 Vrijdag 26 Aug
02:00 14.3° 1018.4 hPa 1.2 m/s 0.6 mm
08:00 14.8° 1018.8 hPa 1.4 m/s 0.3 mm
14:00 20.5° 1018.6 hPa 1.3 m/s 0.1 mm
20:00 17.8° 1017.8 hPa 1.0 m/s 0.2 mm
 06:10     20:37    Daglengte: 14:27 Zaterdag 27 Aug
02:00 14.3° 1018.7 hPa 1.2 m/s 0.2 mm
08:00 14.7° 1018.7 hPa 1.4 m/s 0.2 mm
14:00 20.3° 1018.0 hPa 1.1 m/s 0.2 mm
20:00 17.4° 1016.9 hPa 0.9 m/s 0.4 mm
 06:12     20:34    Daglengte: 14:22 Zondag 28 Aug
02:00 14.2° 1017.7 hPa 1.9 m/s 0.4 mm
08:00 14.6° 1017.6 hPa 2.0 m/s 0.2 mm
14:00 20.6° 1017.3 hPa 0.8 m/s 0.2 mm
20:00 17.8° 1016.6 hPa 0.6 m/s 0.1 mm
 06:14     20:31    Daglengte: 14:17 Maandag 29 Aug
02:00 14.3° 1017.7 hPa 1.5 m/s 0.2 mm
08:00 14.6° 1018.2 hPa 1.7 m/s 0.1 mm
14:00 20.6° 1018.1 hPa 1.1 m/s 0.2 mm
FMI Hirlam - 7.5 km EWN WRFDA - 12 km DWD ICON - 7 km GFS - 25 km Basiskaart






























































Updatetijd (Europe/Brussels) Resolutie Lengte Stap
FMI Hirlam 14:15, 20:15, 02:15, 08:15 7.5 km 49h 1h
EWN WRFDA 10:15, 16:15, 22:15, 04:15 12 km 73h 1h
DWD ICON 11:45, 17:45, 23:45, 05:45 7 km 75h 1h
GFS 14:15, 20:15, 02:15, 08:15 25 km 237h 3h
30+ mm
25-30 mm
20-25 mm
15-20 mm
10-15 mm
6-10 mm
4-6 mm
2-4 mm
1-2 mm
0.5-1 mm
0.2-0.5 mm
0.1-0.2 mm
30+ mm
25-30 mm
20-25 mm
15-20 mm
10-15 mm
6-10 mm
4-6 mm
2-4 mm
1-2 mm
0.5-1 mm
0.2-0.5 mm
0.1-0.2 mm
Sneeuwval
Natte sneeuw
Hagel
Vorst
30+ mm
25-30 mm
20-25 mm
15-20 mm
10-15 mm
6-10 mm
4-6 mm
2-4 mm
1-2 mm
0.5-1 mm
0.2-0.5 mm
0.1-0.2 mm
Sneeuwval
Natte sneeuw
Hagel
Vorst
Onweer
50 mm
40 mm
30 mm
26 mm
22 mm
18 mm
14 mm
10 mm
9 mm
8 mm
7 mm
6 mm
5 mm
4.5 mm
4 mm
3.5 mm
3 mm
2.5 mm
2 mm
1.5 mm
1 mm
0.8 mm
0.6 mm
0.4 mm
0.2 mm
0.05 mm
35°
30°
25°
20°
15°
10°
-5°
-10°
-15°
-20°
-25°
-30°
-35°
33> m/s
29 m/s
25 m/s
21 m/s
17 m/s
14 m/s
11 m/s
8 m/s
5 m/s
3 m/s
0 m/s
2600 J/kg
2400 J/kg
2200 J/kg
2000 J/kg
1800 J/kg
1600 J/kg
1400 J/kg
1200 J/kg
1000 J/kg
800 J/kg
600 J/kg
400 J/kg
200 J/kg
70 dBZ
65 dBZ
60 dBZ
55 dBZ
50 dBZ
45 dBZ
40 dBZ
35 dBZ
30 dBZ
25 dBZ
20 dBZ
15 dBZ
10 dBZ
5 dBZ
-1 K
-2 K
-3 K
-4 K
-5 K
-6 K
-7 K
-8 K
-9 K
950 m²/s²
900 m²/s²
850 m²/s²
800 m²/s²
750 m²/s²
700 m²/s²
650 m²/s²
600 m²/s²
550 m²/s²
500 m²/s²
450 m²/s²
400 m²/s²
350 m²/s²
300 m²/s²
250 m²/s²
200 m²/s²
150 m²/s²
100 m²/s²
46 m/s
44 m/s
42 m/s
40 m/s
38 m/s
36 m/s
34 m/s
32 m/s
30 m/s
28 m/s
26 m/s
24 m/s
22 m/s
20 m/s
16 m/s
12 m/s
8 m/s
4 m/s
30 m/s
28 m/s
26 m/s
24 m/s
22 m/s
20 m/s
18 m/s
16 m/s
14 m/s
12 m/s
10 m/s
8 m/s
6 m/s
4 m/s
2 m/s
3.0
2.8
2.6
2.4
2.2
2.0
1.8
1.6
1.4
1.2
1.0
0.8
0.6
0.4
0.2
15
14
13
12
11
10
9
8
7
6
5
4
3
2
1
90%
80%
70%
60%
50%
40%
30%
20%
10%
42
40
38
36
34
32
30
28
26
24
22
20
18
16
14
12
90+ cm
80-90 cm
70-80 cm
60-70 cm
50-60 cm
40-50 cm
30-40 cm
20-30 cm
10-20 cm
1-10 cm
Sneeuwval
Natte sneeuw
Regen
>120 mm
115 mm
110 mm
105 mm
100 mm
95 mm
90 mm
85 mm
80 mm
75 mm
70 mm
65 mm
60 mm
55 mm
50 mm
45 mm
45 mm
40 mm
35 mm
30 mm
25 mm
20 mm
15 mm
10 mm
5 mm
0.1 mm
960 hPa
880 hPa
800 hPa
720 hPa
640 hPa